Location: Ciserano
(45.5833°N, 9.6000°E)
Time: 05:26:35
(UTC+00:00)

Cosmos 405 Rocket - Pass Details

Date: 29 November 2020
Orbit: 489 x 554 km, 81.3° (Epoch: 24 January)

Event Time Altitude Azimuth Distance (km) Brightness Sun altitude
Rises 05:36:31 0° 208° (SSW) 2,555 6.1 -10.8°
Reaches altitude 10° 05:38:43 10° 216° (SW) 1,683 5.1 -10.4°
Maximum altitude 05:42:09 37° 286° (WNW) 783 3.1 -9.9°
Drops below altitude 10° 05:45:41 10° 355° (N) 1,719 5.1 -9.3°
Sets 05:47:57 0° 4° (N) 2,619 6.1 -8.9°
